Find Hainan-1 01

NORAD ID: 51825 Int'l Des: NNA 2022-019 Owner: SANYZ Country: CN operational
LEOCIRCULARRETROGRADESSO

实时位置

正在加载3D地球...

关于 Hainan-1 01

正在加载描述...

即将过境

Passes for default location (London). Set your location on the main map for personalized predictions.

高度历史

Loading altitude history...

两行轨道根数

1 51825U 22019B 26104.86721434 .00041481 00000-0 39829-3 0 9995
2 51825 97.3497 193.7157 0004418 356.8593 3.2639 15.66496479229824
Epoch: Apr 14, 2026 • Age: 7 hours

当前状态

高度 382.8 km
速度 7.69 km/s
星下点 78.35°N, 158.66°E
发射日期 Feb 27, 2022
运行时间 4.1 years
类型 other

技术详情

分类 Payload
质量 55.00 kg
干质量 55.00 kg
总质量 55.00 kg
长度 0.50 m
直径 0.50 m
跨度 2.00 m
形状 Box + 2 pan
制造商 DFHS
平台类型 Hainan-1
阶段状态 In Orbit
所有者/国家 SANYZ/CN

Most Searched